Location: La Oliva
(42.2466°N, 2.9955°E)
Time: 11:33:45
(UTC+00:00)

Cosmos-2242 - Pass Details

Date: 22 April 2021
Orbit: 589 x 618 km, 82.5° (Epoch: 11 May)

Event Time Altitude Azimuth Distance (km) Brightness Sun altitude
Exits shadow 19:35:48 15° 124° (SE) 1,656 4.6 -10.8°
Maximum altitude 19:37:55 21° 88° (E) 1,383 4.4 -11.1°
Drops below altitude 10° 19:41:08 10° 39° (NE) 1,952 5.5 -11.6°
Sets 19:43:46 0° 24° (NNE) 2,855 6.6 -12.0°
